Regional Weather Roundup
Issued by NWS Kansas City/Pleasant Hill, MO

Home | Current Version | Previous Version | Graphics & Text | Print | Product List | Glossary Off
Versions: 1 2 3 4 5 6 7 8 9 10 11 12 13 14 15 16 17 18 19 20 21 22 23 24 25 26 27 28 29 30 31 32 33 34 35 36 37 38 39 40 41 42 43 44 45 46 47 48 49 50

000
ASUS43 KEAX 301211
RWREAX

WEATHER ROUNDUP FOR EASTERN KANSAS AND NORTHWEST MISSOURI
NATIONAL WEATHER SERVICE KANSAS CITY/PLEASANT HILL MO
700 AM CDT WED JUL 30 2014

KSZ040-057-103>105-MOZ028-029-037-043-301300-
...KANSAS CITY METROPOLITAN AREA...

CITY           SKY/WX    TMP DP  RH WIND       PRES   REMARKS
K.C. INTL      CLOUDY    64  59  83 NE3       30.11S
6HR MIN TEMP:  62; 6HR MAX TEMP:  68;

K.C. DOWNTOWN  CLOUDY    68  59  73 CALM      30.09S
6HR MIN TEMP:  68; 6HR MAX TEMP:  72;

LEES SUMMIT    CLOUDY    66  59  78 NE5       30.10F
6HR MIN TEMP:  63; 6HR MAX TEMP:  70;

OLATHE - IXD   CLOUDY    67  61  81 N5        30.11R
6HR MIN TEMP:  67; 6HR MAX TEMP:  72;

OLATHE - OJC   CLOUDY    68  61  78 N5        30.09S
6HR MIN TEMP:  68; 6HR MAX TEMP:  71;

LAWRENCE       CLOUDY    68  60  75 N5        30.10S

$$

MOZ001>008-011>017-020>025-030>033-038>040-044>046-053-054-301300-
...NORTHERN AND CENTRAL MISSOURI...

CITY           SKY/WX    TMP DP  RH WIND       PRES   REMARKS
ST. JOSEPH     CLOUDY    61  60  97 N5        30.11S
6HR MIN TEMP:  58; 6HR MAX TEMP:  61;

MOSBY          CLOUDY    61  61 100 CALM      30.10S
WARRENSBURG    CLOUDY    61  59  94 CALM      30.09F
WHITEMAN AFB   NOT AVBL
CLINTON        CLOUDY    64  63  94 CALM      30.09S
SEDALIA        CLOUDY    63  58  83 CALM      30.10S
6HR MIN TEMP:  59; 6HR MAX TEMP:  67;

WARSAW         NOT AVBL
CHILLICOTHE      N/A     59  56  89 CALM      30.12S
6HR MIN TEMP:  57; 6HR MAX TEMP:  62;

MOBERLY        PTCLDY    59  54  82 CALM      30.10  FOG
KIRKSVILLE     CLEAR     57  56  96 CALM      30.11S
6HR MIN TEMP:  54; 6HR MAX TEMP:  63;


$$

MOZ041-047>049-056>058-063>065-088>090-097-301300-
...EASTERN AND SOUTHERN MISSOURI...

CITY           SKY/WX    TMP DP  RH WIND       PRES   REMARKS
ST. LOUIS INTL MOCLDY    67  58  72 CALM      30.09S
6HR MIN TEMP:  64; 6HR MAX TEMP:  69;

SPIRIT OF STL  PTCLDY    60  58  92 CALM      30.08R
COLUMBIA       MOCLDY    63  59  87 CALM      30.10R
JEFFERSON CITY MOCLDY    60  57  89 CALM      30.09R
MEXICO         MOCLDY   N/A N/A N/A CALM      30.10R
HANNIBAL       CLEAR     64  57  77 CALM      30.10R
ROLLA          CLOUDY    62  57  83 CALM      30.08S
LEBANON        MOCLDY    63  57  82 CALM      30.10S
OSAGE BEACH    CLOUDY    59  55  88 CALM      30.09S
SPRINGFIELD    CLOUDY    68  60  75 S5        30.09S
BRANSON        CLOUDY    68  63  83 CALM      30.11R
NEVADA         CLOUDY    66  63  88 CALM      30.11R
JOPLIN         LGT RAIN  67  64  90 VRB5      30.10R FOG
WEST PLAINS    PTCLDY    59  56  89 CALM      30.11S
MALDEN         PTCLDY    63  59  88 CALM      30.11R

$$

IAZ060-094-KSZ022-034>040-054-083-096-NEZ052-066-093-301300-
...KANSAS...SOUTHEAST NEBRASKA AND IOWA...

CITY           SKY/WX    TMP DP  RH WIND       PRES   REMARKS
TOPEKA         CLOUDY    68  62  81 CALM      30.11R
6HR MIN TEMP:  67; 6HR MAX TEMP:  72;

MANHATTAN      LGT RAIN  66  64  93 NE3       30.12R FOG
EMPORIA        CLOUDY    65  62  90 NE12      30.10R
CHANUTE        CLOUDY    69  63  81 E5        30.09R
WICHITA        CLOUDY    69  61  75 E3        30.07R
OMAHA          PTCLDY    56  54  93 N5        30.15R
LINCOLN        PTCLDY    58  54  86 N6        30.16S
FALLS CITY     MOCLDY    60  57  89 NW3       30.12S
LAMONI         CLEAR     58  53  84 NW5       30.12R
DES MOINES     PTCLDY    59  54  83 CALM      30.10S

$$




USA.gov is the U.S. government's official web portal to all federal, state and local government web resources and services.